Location: ?ejeti?ky
(50.4060°N, 14.9016°E)
Time: 21:52:35
(UTC+00:00)

STARLINK-1364 - Pass Details

Date: 03 October 2020
Orbit: 548 x 551 km, 53.0° (Epoch: 23 October)

Event Time Altitude Azimuth Distance (km) Brightness Sun altitude
Exits shadow 03:14:11 33° 298° (WNW) 936 4.4 -18.2°
Maximum altitude 03:15:50 60° 4° (N) 635 3.9 -17.9°
Drops below altitude 10° 03:19:57 10° 85° (E) 1,829 7.5 -17.3°
Sets 03:22:12 0° 89° (E) 2,723 8.7 -16.9°
